COSMOS 1275 DEB, 12669

Orbit data source: Space-Track

COSMOS 1275 DEB, 12669 is space debris in LEO originally from a launch on Thu, 04 Jun 1981 UTC launched from the Plesetsk Missile And Space Complex (PKMTR). Debris objects in space refer to the collection of defunct objects orbiting the Earth. Examples of debris include non-operational satellites, rocket bodies, and fragments generated from explosions, collisions, or faulty payload assembly.

Loading next visibility...
Identifier
12669, 1981-053Z
Orbit
LEO
Country
Flag of CISCIS
Related business
Manufacturer
Unknown
Mission
Spacecraft
Bus & Motor
Unknown
Mass
Unknown
Launch date (UTC)
1981-06-04 (45 years ago)
Launch vehicle
Unknown
Launch site
Plesetsk Missile And Space Complex (PKMTR)
Object type
Payload
Rocket body
Debris
Shape & HBR
Unknown shape, 0.2 m
Radar Cross Section
Small (<0.1 m²)

Expand to show TLE details & history
Last TLE update: 9 hours ago

TLE from 9 hours ago
0 COSMOS 1275 DEB
1 12669U 81053Z   26119.54221388  .00001674  00000-0  10216-2 0  9993
2 12669  83.0017 209.3577 0067354 295.9202 123.9856 14.04392154257889
Epoch: 2026-04-29T13:00Z
TLE epoch observation values (Epoch: 2026-04-29T13:00:47.279Z)
Latitude
59.88989°
Longitude
168.81473°
Altitude
916.37 km
Speed
7.385 km/s
True Right ascension
14h 46m 03s
True Declination
59° 44' 37"
Sunlit
Object was in daylight at epoch
Visualization orbit readout
Latitude
Unknown
Longitude
Unknown
Altitude
Unknown
Speed
Unknown
Apparent Right ascension
Unknown
Apparent Declination
Unknown
Sunlit
N/A
Visualization observer readout
Local Sidereal Time
05:43:58
Azimuth
Unknown
Elevation
Unknown
Doppler factor
Unknown
Orbital elements
Apogee altitude
924.589 km
Perigee altitude
826.874 km
Semi-major axis
7,253.868 km
Eccentricity
0.00674
Inclination
83.0017°
RAAN
209.3577°
Arg. of periapsis
295.9202°
True anomaly
124.62256°
Mean anomaly
123.9856°
Eccentric anomaly
124.30438°
Mean motion
3.51309 °/min
Orbital period
102.47 mins
BSTAR
0.0010216
Loading maneuver chart data...
Computing Atmospheric mass density...
Loading historical data...
Loading historical data...
Loading historical data...
Loading historical data...
Loading historical data...
Loading historical data...
Loading historical data...

Documentation

Showing up to 5 results
|